Home   Weather   Estonia   Tallinn   Past weeks
Flag for Estonia

Past Weather in Tallinn, Estonia — Yesterday and Last 2 Weeks

Currently: 39 °F. Light rain. Mostly cloudy. (Weather station: Tallinn, Estonia). See more current weather

Past Weather in Tallinn — Graph

°F

Tallinn Temperature Yesterday

Maximum temperature yesterday: 43 °F (at 1:50 pm)
Minimum temperature yesterday: 37 °F (at 8:20 pm)
Average temperature yesterday: 40 °F

High & Low Weather Summary for the Past Weeks

 TemperatureHumidityPressure
High61 °F (Oct 6, 3:50 pm)100% (Oct 9, 10:50 pm)30.60 "Hg (Oct 9, 10:50 pm)
Low32 °F (Oct 14, 3:50 am)45% (Oct 6, 3:50 pm)29.30 "Hg (Oct 15, 5:20 pm)
Average47 °F79%30.01 "Hg
* Reported Oct 5 6:20 am — Oct 20 6:50 am, Tallinn. Weather by CustomWeather, © 2021

Note: Actual official high and low records may vary slightly from our data, if they occured in-between our weather recording intervals... More about our weather records

Tallinn Weather History for the Previous 24 Hours

Scroll right to see more
 ConditionsComfort  
Time TempWeatherWind HumidityBarometerVisibility
6:50 am
Wed, Oct 20
39 °FRain. Overcast.13 mph87%29.62 "Hg6 mi
6:20 am39 °FLight rain. Passing clouds.14 mph87%29.65 "HgN/A
5:50 am39 °FLight rain. Passing clouds.14 mph87%29.68 "HgN/A
5:20 am41 °FOvercast.13 mph76%29.71 "HgN/A
4:50 am39 °FOvercast.14 mph81%29.74 "HgN/A
4:20 am39 °FOvercast.12 mph81%29.77 "HgN/A
3:50 am39 °FPassing clouds.13 mph75%29.80 "HgN/A
3:20 am39 °FOvercast.10 mph81%29.83 "HgN/A
2:50 am41 °FOvercast.12 mph70%29.86 "HgN/A
2:20 am39 °FOvercast.10 mph75%29.86 "HgN/A
1:50 am39 °FPassing clouds.9 mph75%29.89 "HgN/A
1:20 am39 °FPassing clouds.9 mph75%29.92 "HgN/A
12:50 am39 °FClear.9 mph75%29.95 "Hg10 mi
12:20 am39 °FClear.8 mph75%29.98 "Hg10 mi
11:50 pm
Tue, Oct 19
39 °FClear.7 mph70%29.98 "Hg10 mi
11:20 pm39 °FClear.8 mph70%29.98 "Hg10 mi
10:50 pm39 °FClear.8 mph70%30.01 "Hg10 mi
10:20 pm39 °FPassing clouds.8 mph70%30.04 "HgN/A
9:50 pm39 °FPassing clouds.7 mph70%30.04 "HgN/A
9:20 pm39 °FClear.7 mph65%30.07 "Hg10 mi
8:50 pm37 °FClear.7 mph70%30.07 "Hg10 mi
8:20 pm37 °FClear.6 mph70%30.09 "Hg10 mi
7:50 pm39 °FClear.6 mph61%30.09 "Hg10 mi
7:20 pm39 °FClear.6 mph56%30.09 "Hg10 mi
6:50 pm39 °FClear.6 mph56%30.09 "Hg10 mi
6:20 pm39 °FClear.6 mph61%30.12 "Hg10 mi
5:50 pm39 °FPassing clouds.5 mph65%30.12 "HgN/A
5:20 pm41 °FScattered clouds.3 mph61%30.12 "HgN/A
4:50 pm41 °FScattered clouds.5 mph61%30.12 "HgN/A
4:20 pm41 °FSunny.1 mph53%30.15 "Hg10 mi
3:50 pm43 °FSunny.2 mph53%30.15 "Hg10 mi
3:20 pm43 °FSunny.2 mph53%30.15 "Hg10 mi
2:50 pm43 °FSunny.3 mph53%30.15 "Hg10 mi
2:20 pm43 °FSunny.5 mph53%30.15 "Hg10 mi
1:50 pm43 °FPassing clouds.6 mph53%30.15 "HgN/A
1:20 pm41 °FPassing clouds.7 mph57%30.15 "HgN/A
12:50 pm41 °FPassing clouds.7 mph57%30.18 "HgN/A
12:20 pm41 °FPassing clouds.9 mph57%30.18 "HgN/A
11:50 am41 °FPassing clouds.9 mph61%30.15 "HgN/A
11:20 am41 °FPassing clouds.8 mph61%30.15 "HgN/A
10:50 am41 °FPassing clouds.9 mph61%30.15 "HgN/A
10:20 am41 °FScattered clouds.10 mph61%30.15 "HgN/A
9:50 am39 °FScattered clouds.9 mph65%30.15 "HgN/A
9:20 am39 °FPartly sunny.8 mph65%30.15 "HgN/A
8:50 am39 °FScattered clouds.10 mph65%30.15 "HgN/A
8:20 am39 °FPartly sunny.9 mph65%30.15 "HgN/A
Weather by CustomWeather, © 2021

See weather overview